Change the Weather History Date:

Sunday, September 9, 2012

  Actual Average Record
Temperature  
Mean Temperature 78 °F 82 °F  
Max Temperature 84 °F 90 °F 95 °F (1948)
Min Temperature 72 °F 75 °F 67 °F (1972)
Degree Days  
Heating Degree Days 0 0  
Month to date heating degree days 0 0  
Since 1 July heating degree days 0 0  
Cooling Degree Days 13 17  
Month to date cooling degree days 159 161  
Year to date cooling degree days 3079 2676  
Growing Degree Days 28 (Base 50)    
Moisture  
Dew Point 74 °F    
Average Humidity 84    
Maximum Humidity 93    
Minimum Humidity 74    
Precipitation  
Precipitation 1.68 in 0.23 in 2.13 in (1912)
Month to date precipitation 4.23 2.24  
Year to date precipitation 49.19 35.96  
Sea Level Pressure  
Sea Level Pressure 29.94 in    
Wind  
Wind Speed 8 mph (WSW)    
Max Wind Speed 23 mph    
Max Gust Speed 29 mph    
Visibility 7 miles    
Events Fog , Rain , Thunderstorm    
T = Trace of Precipitation, MM = Missing Value Source: NWS Daily Summary

Daily Weather History Graph

Daily Weather History Graph

Search for Another Location

Airport or City:

Trip Planner

Search our weather history database for the weather conditions in past years. The results will help you decide how hot, cold, wet, or windy it might be!

Date:

Astronomy

Sep. 09, 2012 Rise Set
Actual Time 7:12 AM EDT 7:41 PM EDT
Civil Twilight 6:49 AM EDT 8:04 PM EDT
Nautical Twilight 6:21 AM EDT 8:32 PM EDT
Astronomical Twilight 5:53 AM EDT 9:00 PM EDT
Moon 1:03 AM EDT (9/9) 3:03 PM EDT (9/9)
Length of Visible Light 13h 15m
Length of Day
12h 28m
Last Quarter, 39% of the Moon is Illuminated
Sep 9
Last Quarter
Sep 15
New
Sep 22
First Quarter
Sep 29
Full
Oct 8
Last Quarter

Hourly Weather History & Observations

Time (EDT) Temp. Heat Index Dew Point Humidity Pressure Visibility Wind Dir Wind Speed Gust Speed Precip Events Conditions
12:53 AM 82.9 °F 90.2 °F 75.0 °F 77% 29.89 in 10.0 mi SSW 13.8 mph - N/A   Scattered Clouds
1:53 AM 82.9 °F 89.4 °F 73.9 °F 74% 29.88 in 10.0 mi SW 15.0 mph - N/A   Scattered Clouds
2:53 AM 82.9 °F 90.2 °F 75.0 °F 77% 29.88 in 10.0 mi SW 15.0 mph - N/A   Scattered Clouds
3:53 AM 82.9 °F 90.2 °F 75.0 °F 77% 29.87 in 10.0 mi SSW 12.7 mph - N/A   Mostly Cloudy
4:53 AM 80.1 °F 84.5 °F 73.9 °F 81% 29.88 in 10.0 mi South 9.2 mph - N/A   Mostly Cloudy
5:53 AM 82.0 °F 88.6 °F 75.0 °F 79% 29.88 in 10.0 mi SW 12.7 mph 19.6 mph N/A   Mostly Cloudy
6:53 AM 82.0 °F 88.6 °F 75.0 °F 79% 29.90 in 10.0 mi SW 11.5 mph - N/A   Mostly Cloudy
7:11 AM 78.8 °F - 75.2 °F 89% 29.92 in 1.8 mi West 23.0 mph 28.8 mph 0.00 in Rain , Thunderstorm Light Thunderstorms and Rain
7:13 AM 78.8 °F - 73.4 °F 83% 29.92 in 0.8 mi West 18.4 mph 28.8 mph 0.01 in Rain , Thunderstorm Light Thunderstorms and Rain
7:17 AM 77.0 °F - 73.4 °F 89% 29.91 in 0.5 mi West 16.1 mph 28.8 mph 0.15 in Fog , Rain , Thunderstorm Light Thunderstorms and Rain
7:27 AM 78.8 °F - 75.2 °F 89% 29.91 in 3.0 mi West 12.7 mph 18.4 mph 0.30 in Rain , Thunderstorm Light Thunderstorms and Rain
7:53 AM 79.0 °F - 75.9 °F 90% 29.92 in 10.0 mi SW 10.4 mph - 0.32 in Rain , Thunderstorm Light Thunderstorms and Rain
8:10 AM 78.8 °F - 75.2 °F 89% 29.92 in 4.0 mi West 10.4 mph - 0.02 in Rain Light Rain
8:48 AM 78.8 °F - 75.2 °F 89% 29.94 in 6.0 mi NNW 6.9 mph - 0.05 in Rain Light Rain
8:53 AM 77.0 °F - 73.9 °F 90% 29.94 in 5.0 mi NNW 5.8 mph - 0.06 in Rain Light Rain
9:16 AM 75.2 °F - 73.4 °F 94% 29.96 in 4.0 mi WNW 6.9 mph - 0.06 in Rain Light Rain
9:29 AM 73.4 °F - 71.6 °F 94% 29.97 in 0.5 mi NW 6.9 mph 17.3 mph 0.17 in Fog , Rain Heavy Rain
9:43 AM 73.4 °F - 71.6 °F 94% 29.97 in 3.0 mi WNW 6.9 mph - 0.32 in Rain , Thunderstorm Light Thunderstorms and Rain
9:53 AM 73.9 °F - 71.1 °F 91% 29.98 in 3.0 mi NW 6.9 mph - 0.36 in Rain , Thunderstorm Light Thunderstorms and Rain
10:00 AM 73.4 °F - 71.6 °F 94% 29.98 in 1.0 mi North 5.8 mph - 0.13 in Rain , Thunderstorm Thunderstorms and Rain
10:11 AM 73.4 °F - 69.8 °F 88% 29.98 in 2.0 mi North 3.5 mph - N/A Rain , Thunderstorm Light Thunderstorms and Rain
10:25 AM 73.4 °F - 69.8 °F 88% 29.98 in 1.5 mi NW 4.6 mph - 0.28 in Rain , Thunderstorm Thunderstorms and Rain
10:33 AM 71.6 °F - 69.8 °F 94% 29.98 in 0.5 mi North 3.5 mph - 0.44 in Rain , Thunderstorm Thunderstorms and Rain
10:47 AM 73.4 °F - 71.6 °F 94% 29.97 in 2.0 mi ESE 4.6 mph - 0.76 in Rain , Thunderstorm Light Thunderstorms and Rain
10:53 AM 73.0 °F - 72.0 °F 96% 29.97 in 3.0 mi ESE 3.5 mph - 0.77 in Rain , Thunderstorm Light Thunderstorms and Rain
11:10 AM 73.4 °F - 73.4 °F 100% 29.97 in 7.0 mi South 4.6 mph - 0.02 in Rain , Thunderstorm Light Thunderstorms and Rain
11:22 AM 75.2 °F - 73.4 °F 94% 29.98 in 7.0 mi SW 12.7 mph 21.9 mph 0.03 in Thunderstorm Thunderstorm
11:27 AM 75.2 °F - 73.4 °F 94% 29.99 in 1.8 mi SSW 8.1 mph 21.9 mph 0.07 in Rain , Thunderstorm Light Thunderstorms and Rain
11:33 AM 75.2 °F - 73.4 °F 94% 29.99 in 3.0 mi SSW 8.1 mph - 0.09 in Rain , Thunderstorm Light Thunderstorms and Rain
11:53 AM 75.9 °F - 73.9 °F 94% 29.98 in 7.0 mi SW 6.9 mph - 0.11 in Thunderstorm Thunderstorm
12:04 PM 77.0 °F - 75.2 °F 94% 29.97 in 10.0 mi SSW 6.9 mph - N/A   Overcast
12:23 PM 78.8 °F - 75.2 °F 89% 29.98 in 7.0 mi SSW 6.9 mph - N/A Thunderstorm Thunderstorm
12:53 PM 78.1 °F - 75.0 °F 90% 29.98 in 10.0 mi South 9.2 mph - 0.00 in Thunderstorm Thunderstorm
1:01 PM 77.0 °F - 75.2 °F 94% 29.98 in 8.0 mi South 8.1 mph - 0.00 in Rain , Thunderstorm Light Thunderstorms and Rain
1:14 PM 77.0 °F - 75.2 °F 94% 29.97 in 2.0 mi SSW 3.5 mph - 0.05 in Rain , Thunderstorm Light Thunderstorms and Rain
1:23 PM 78.8 °F - 75.2 °F 89% 29.97 in 5.0 mi SSW 6.9 mph - 0.06 in Rain Light Rain
1:53 PM 79.0 °F - 75.0 °F 88% 29.94 in 10.0 mi SSW 10.4 mph - 0.06 in   Overcast
2:53 PM 82.9 °F 91.8 °F 77.0 °F 82% 29.91 in 10.0 mi SW 13.8 mph - N/A   Overcast
3:02 PM 82.4 °F 89.5 °F 75.2 °F 79% 29.91 in 10.0 mi SW 13.8 mph - N/A   Overcast
3:17 PM 82.4 °F 89.5 °F 75.2 °F 79% 29.90 in 10.0 mi SW 15.0 mph - N/A   Overcast
3:47 PM 84.2 °F 92.3 °F 75.2 °F 74% 29.89 in 10.0 mi West 13.8 mph 20.7 mph N/A   Overcast
3:53 PM 84.0 °F 92.6 °F 75.9 °F 76% 29.89 in 10.0 mi West 15.0 mph - N/A   Overcast
4:11 PM 84.2 °F 92.3 °F 75.2 °F 74% 29.90 in 10.0 mi West 13.8 mph - N/A   Overcast
4:53 PM 84.0 °F 92.6 °F 75.9 °F 76% 29.91 in 10.0 mi West 11.5 mph - N/A   Overcast
5:51 PM 80.6 °F 86.2 °F 75.2 °F 84% 29.92 in 4.0 mi NW 6.9 mph 18.4 mph 0.00 in Rain Light Rain
5:53 PM 80.1 °F 85.1 °F 75.0 °F 85% 29.92 in 4.0 mi NW 5.8 mph - 0.00 in Rain Light Rain
6:00 PM 80.6 °F 86.2 °F 75.2 °F 84% 29.92 in 8.0 mi NW 4.6 mph - 0.00 in   Overcast
6:53 PM 82.0 °F 88.6 °F 75.0 °F 79% 29.93 in 8.0 mi West 8.1 mph - 0.00 in   Overcast
7:53 PM 82.0 °F 90.2 °F 77.0 °F 85% 29.93 in 10.0 mi WNW 5.8 mph - N/A   Mostly Cloudy
8:53 PM 82.0 °F 89.4 °F 75.9 °F 82% 29.95 in 10.0 mi West 4.6 mph - N/A   Mostly Cloudy
9:53 PM 81.0 °F 87.3 °F 75.9 °F 85% 29.96 in 10.0 mi Calm Calm - N/A   Mostly Cloudy
10:53 PM 80.1 °F 85.4 °F 75.9 °F 87% 29.97 in 9.0 mi NW 4.6 mph - 0.00 in Rain Light Rain
11:53 PM 79.0 °F - 75.9 °F 90% 29.97 in 8.0 mi Calm Calm - 0.00 in   Scattered Clouds